AirNav   Everest Fuels
 
 563 users online  

31PA Foxcatcher Farm Heliport
Newtown Square, Pennsylvania, USA

GOING TO NEWTOWN SQUARE?


FAA INFORMATION EFFECTIVE 22 APRIL 2021

Location

FAA Identifier: 31PA
Lat/Long: 39-59-52.4300N 075-24-54.6500W
39-59.873833N 075-24.910833W
39.9978972,-75.4151806
(estimated)
Elevation: 440 ft. / 134 m (estimated)
Variation: 12W (1995)
From city: 1 mile S of NEWTOWN SQUARE, PA
Time zone: UTC -4 (UTC -5 during Standard Time)
Zip code: 19073

Heliport Operations

Heliport use: Private use. Permission required prior to landing
Activation date: 12/1995
Control tower: no
ARTCC: NEW YORK CENTER
FSS: WILLIAMSPORT FLIGHT SERVICE STATION
Attendance: UNATNDD
Segmented circle: no

Heliport Communications

WX AWOS-3T at OQN (8 nm W): 121.4 ((610) 692-6190)
WX AWOS-3 at LOM (11 nm NE): 118.925 (215-646-1068)
WX ASOS at PHL (11 nm SE): PHONE 215-492-9617
WX ASOS at PTW (16 nm NW): 119.425 (610-495-0823)
WX ASOS at PNE (19 nm E): 121.15 (215-677-0146)

Nearby radio navigation aids

VOR radial/distance  VOR name  Freq  Var
MXEr077/12.7MODENA VORTAC113.2009W
PTWr163/15.0POTTSTOWN VORTAC116.5009W
DQOr035/21.1DUPONT VORTAC114.0010W
OODr357/22.3WOODSTOWN VORTAC112.8010W
ARDr247/27.9YARDLEY VOR/DME108.2010W
VCNr333/34.5CEDAR LAKE VOR/DME115.2010W
ETXr170/37.1EAST TEXAS VOR/DME110.2009W
GXUr281/37.6MC GUIRE VORTAC110.6012W

 
NDB name  Hdg/Dist  Freq  Var  ID
AMBLER230/9.727512WING .. -. --.
RAINBOW351/37.136311WRNB .-. -. -...

Heliport Services

Runway Information

Helipad H1

Dimensions: 150 x 150 ft. / 46 x 46 m
Surface: turf
Traffic pattern: leftleft

Heliport Ownership and Management from official FAA records

Ownership: Privately-owned
Owner: JOHN E. DU PONT
P.O. BOX 358
NEWTOWN SQUARE, PA 19073
Phone 215-353-7503
Manager: TARAS M. WOCHOK
13 PAOLI COURT
PAOLI, PA 19301
Phone 610-296-9900

Heliport Operational Statistics

Aircraft based on the field: 1
Helicopters: 1
    

Additional Remarks

A52-H1 75 FT TREES 1000 FT FM ALL SIDES OF HELIPORT.
FOR CD CTC PHILADELPHIA APCH AT 800-354-9884.

Instrument Procedures

There are no published instrument procedures at 31PA.

Some nearby airports with instrument procedures:

KOQN - Brandywine Regional Airport (8 nm W)
KLOM - Wings Field Airport (11 nm NE)
KPHL - Philadelphia International Airport (11 nm SE)
N10 - Perkiomen Valley Airport (12 nm N)
7N7 - Spitfire Aerodrome (16 nm S)
KPTW - Heritage Field Airport (16 nm NW)
N57 - New Garden Airport (19 nm SW)
KPNE - Northeast Philadelphia Airport (19 nm E)
N47 - Pottstown Municipal Airport (20 nm NW)
 
Loc | Ops | Rwys | IFR | FBO | Links
Com | Nav | Svcs | Stats | Notes
Area around 31PA (Foxcatcher Farm Heliport)
 
Road maps at: MapQuest Bing Google
 
Aerial photo
No photo
 
Sectional chart

 
Airport distance calculator
Flying to Foxcatcher Farm Heliport? Find the distance to fly.

From to 31PA

Sunrise and sunset
Times for 06-May-2021
 Local
(UTC-4)
 Zulu
(UTC)
Morning civil twilight05:2709:27
Sunrise05:5709:57
Sunset20:0024:00
Evening civil twilight20:3000:30

Current date and time
Zulu (UTC)  06-May-2021 05:15:07
Local (UTC-4)  06-May-2021 01:15:07
 
METAR
KOQN 
8nm W 
060455Z AUTO 31006G14KT 10SM SCT055 12/01 A2994 RMK AO2
KLOM 
11nm NE 
060455Z AUTO 30004KT 10SM OVC060 12/07 A2992 RMK AO2 T01160067
KPHL 
11nm SE 
060454Z 33014G20KT 10SM BKN055 14/07 A2991 RMK AO2 SLP129 T01390067 402440139
KPTW 
15nm NW 
060454Z AUTO 30006G17KT 10SM CLR 10/02 A2994 RMK AO2 SLP135 T01000022 402220100
KPNE 
19nm E 
060454Z AUTO 34008KT 10SM BKN060 12/06 A2992 RMK AO2 SLP130 T01220056 402280117
TAF
KPHL 
11nm SE 
060304Z 0603/0706 32011KT P6SM SCT060 FM061400 32010G18KT P6SM FEW060 FM062000 32010KT P6SM FEW060 BKN250 FM070200 VRB04KT P6SM OVC250
KPNE 
19nm E 
052033Z 0521/0618 32010KT P6SM VCTS BKN050CB FM052200 32010G18KT P6SM BKN070 FM060800 32009KT P6SM FEW250 FM061400 33012KT P6SM SCT250
NOTAMs
Click for the latest NOTAMs
NOTAMs are issued by the DoD/FAA and will open in a separate window not controlled by AirNav.

 

 
 

Would you like to see your business listed on this page?

 If your business provides an interesting product or service to pilots, flight crews, aircraft, or users of the Foxcatcher Farm Heliport, you should consider listing it here.  To start the listing process, click on the button below
 
Add a business
 

Other Pages about Foxcatcher Farm Heliport

Update a link
 
Copyright © AirNav, LLC. All rights reserved. Privacy Policy  Contact